GEOEYE 1

Last updated on Mon Oct 27 2025 00:02:29 GMT+0000 (Coordinated Universal Time)

1 33331U 08042A 25299.45319315 .00000809 00000+0 16079-3 0 9997 2 33331 98.1299 11.3152 0005152 71.0551 289.1210 14.64714473915939
UTC large
Height (km)
Speed (km/s)
/
Latitude / Longitude
Inclination (degrees)
Orbital Period (minutes)
Azimuth
Elevation
Range (km)
Doppler Factor

Next 0 passes for location: London (51.5072 / 0.1276)

Sorry there are no passes over London.